User: anonymous   Login
Location: Memphis
(29.8667°N, 31.2500°E)
Time: 14:51:00
(UTC+00:00)
Language:

CSL-04 Rocket - Orbit

View from above orbital plane
View from above orbital plane
View from above satellite
View from above satellite

Ground track
Ground track

The orbit data is extracted from the following two-line orbital elements,

1 25732U 99025C   21128.85467914 -.00000025  00000-0  98738-5 0  9990
2 25732  98.9060 165.2156 0037364   4.5041 168.5673 14.17692018137923
Epoch (UTC): 08 May 2021 20:30:44
Eccentricity: 0.0037364
inclination: 98.9060°
perigee height: 806 km
apogee height: 860 km
right ascension of ascending node: 165.2156°
argument of perigee: 4.5041°
revolutions per day: 14.17692018
mean anomaly at epoch: 168.5673°
orbit number at epoch: 13792

The dashed part of the orbit path shows where the satellite is in the earth's shadow,  

DLR